This is the latest recevied weather packets stored in our database for station/object KA3WVU. If no packets are shown the sender has not sent any weather packets the latest 10 day(s).
| Time | Temp. | Humidity | Pressure | Rain* | Wind** | Luminosity | Snow |
|---|---|---|---|---|---|---|---|
| 1777852211 | 9.44° C | 48% | 1012.3 hPa | 0 mm | - | 9 W/m² | - |
| 1777851909 | 9.44° C | 47% | 1012 hPa | 0 mm | - | 10 W/m² | - |
| 1777851607 | 9.44° C | 47% | 1012.4 hPa | 0 mm | - | 12 W/m² | - |
| 1777851303 | 9.44° C | 49% | 1012.5 hPa | 0 mm | - | 18 W/m² | - |
| 1777850999 | 9.44° C | 47% | 1012.5 hPa | 0 mm | - | 20 W/m² | - |
| 1777850696 | 10° C | 46% | 1012.4 hPa | 0 mm | - | 19 W/m² | - |
| 1777850394 | 10° C | 46% | 1012.5 hPa | 0 mm | - | 22 W/m² | - |
| 1777850091 | 10° C | 47% | 1012.5 hPa | 0 mm | - | 29 W/m² | - |
| 1777849788 | 10° C | 45% | 1012.4 hPa | 0 mm | - | 28 W/m² | - |
| 1777849484 | 10.56° C | 45% | 1012.1 hPa | 0 mm | - | 29 W/m² | - |
| 1777849182 | 10.56° C | 45% | 1012.3 hPa | 0 mm | - | 33 W/m² | - |
| 1777848879 | 10.56° C | 44% | 1012.3 hPa | 0 mm | - | 42 W/m² | - |
| 1777848574 | 10.56° C | 45% | 1012.3 hPa | 0 mm | - | 46 W/m² | - |
| 1777848271 | 10.56° C | 45% | 1012.3 hPa | 0 mm | - | 48 W/m² | - |
| 1777847969 | 10.56° C | 44% | 1012.5 hPa | 0 mm | - | 58 W/m² | - |
| 1777847667 | 10.56° C | 45% | 1012.4 hPa | 0 mm | - | 63 W/m² | - |
| 1777847362 | 10.56° C | 44% | 1012.4 hPa | 0 mm | - | 75 W/m² | - |
| 1777847061 | 10.56° C | 44% | 1012.5 hPa | 0 mm | - | 54 W/m² | - |
| 1777846759 | 11.11° C | 43% | 1012.3 hPa | 0 mm | - | 43 W/m² | - |
| 1777846457 | 11.67° C | 44% | 1012.3 hPa | 0 mm | - | 109 W/m² | - |
| 1777846153 | 11.67° C | 43% | 1012.1 hPa | 0 mm | - | 85 W/m² | - |
| 1777845850 | 10.56° C | 42% | 1012.4 hPa | 0 mm | - | 110 W/m² | - |
| 1777845547 | 10.56° C | 43% | 1012.4 hPa | 0 mm | - | 65 W/m² | - |
| 1777845244 | 11.11° C | 42% | 1012.1 hPa | 0 mm | - | 57 W/m² | - |
| 1777844941 | 11.67° C | 43% | 1012.5 hPa | 0 mm | - | 88 W/m² | - |
* Rain latest hour (hover to see other rain measurements)
** Current wind speed in m/s (hover to see current wind gust speed)